CAPE
0 0 0 0 0 2 2 0 0 0 0 0 0 0 0 0 0 0 0 0 0 0 0 0 0 0 0 0 0 0 0 0 0 0 0 0 0 3 96 106 27 20 4 14 23 40 34
7 4 2 1 1 1 0 0 0 0 0 0 0 0 0 0 0 0 0 0 0 0 0 0 0 0 0 0 0 0 0 0 0 0 0 0 0 24 93 39 15 50 9 8 5 24 29
0 1 3 3 3 2 0 0 0 0 0 0 0 0 0 0 0 0 0 0 0 0 0 0 0 0 0 0 0 0 0 0 0 0 0 0 1 66 14 0 9 16 42 18 16 0 0
1 1 5 2 1 0 0 0 0 0 0 0 0 0 0 0 0 0 0 0 0 0 0 0 0 0 0 0 0 0 0 0 0 0 1 23 14 16 20 28 6 20 20 24 16 10 3
3 1 2 2 1 0 0 0 0 0 0 0 0 0 0 0 0 0 0 0 0 0 0 0 0 0 0 0 0 0 0 0 0 0 0 0 0 0 23 44 24 24 23 16 51 25 0
10 7 2 0 0 1 0 0 0 0 0 0 0 0 0 0 0 0 0 0 0 0 0 0 0 0 0 0 0 0 0 0 0 0 0 0 0 0 3 26 57 18 54 55 124 51 0
0 7 4 2 1 1 1 0 0 0 0 0 0 0 0 0 0 0 0 0 0 0 0 0 0 0 0 0 0 0 0 0 3 3 0 6 0 0 18 16 27 14 18 52 17 8 0
0 0 0 1 3 3 1 1 0 0 0 0 0 0 0 0 0 0 0 0 0 0 0 0 0 0 0 0 0 0 0 3 39 11 0 8 1 2 18 9 7 0 0 0 36 2 0
0 0 0 1 2 2 2 1 0 0 0 0 0 0 0 0 0 2 0 0 0 0 0 0 0 0 0 0 0 0 0 16 19 3 0 5 7 37 21 3 0 0 0 0 10 0 0
0 0 0 0 0 0 0 1 0 0 0 0 0 0 0 0 0 216 2 0 0 0 0 0 0 0 0 0 0 0 0 0 8 2 0 0 4 0 13 0 0 0 0 0 0 0 0
0 0 0 0 0 0 0 1 0 0 0 0 0 0 0 0 0 195 0 1 0 0 14 0 0 0 0 0 0 0 0 0 0 0 0 0 0 0 4 0 0 0 0 0 0 0 0
0 0 0 0 0 0 0 0 0 0 0 0 0 0 0 0 0 2 10 105 0 0 0 0 0 0 0 0 0 0 0 0 0 0 0 0 0 0 5 0 0 0 0 0 0 0 0
8 4 0 0 0 0 0 0 0 0 0 0 0 0 0 0 0 0 1 158 0 0 0 0 0 0 0 0 0 0 0 0 0 0 0 0 0 0 0 0 0 0 0 48 2 16 1
18 3 0 0 0 0 0 0 0 0 0 0 0 0 0 0 0 0 109 117 4 0 0 0 0 0 0 0 0 0 0 0 0 0 0 0 0 0 0 0 0 0 0 280 27 34 9
5 5 0 0 0 0 0 0 0 0 0 0 0 0 0 0 0 1 308 24 1 0 0 0 0 0 0 0 0 0 0 0 0 0 0 0 2 0 0 0 0 0 0 0 0 23 5
0 8 0 0 0 0 0 0 0 0 0 0 0 0 0 0 9 86 281 2 9 0 0 0 0 0 0 0 0 0 0 0 0 0 0 0 0 0 0 0 0 0 0 80 261 2 0
31 6 0 0 0 0 0 0 0 0 0 0 0 0 34 0 50 177 31 9 7 6 0 0 0 0 0 0 0 0 0 0 0 0 0 0 36 0 0 0 0 0 0 2 60 23 93
42 43 35 30 0 0 0 0 0 0 0 0 0 0 73 0 7 7 2 0 2 23 22 0 0 0 0 0 0 0 0 0 0 0 0 0 0 0 0 0 0 0 0 0 148 3 11
51 46 39 35 0 0 0 0 0 0 0 0 0 1 110 19 4 2 0 0 0 12 21 39 0 0 0 0 0 0 0 0 0 0 0 0 0 20 0 0 0 0 0 0 32 11 0
36 42 33 54 9 0 0 0 0 0 0 0 0 9 3 42 2 16 1 0 1 0 10 10 48 4 0 0 0 0 0 0 0 0 0 0 0 0 0 1 0 0 0 0 1 31 0
29 43 31 24 51 15 0 0 0 0 0 1 2 1 24 22 15 9 20 15 21 28 1 24 23 20 0 0 0 0 0 0 0 0 0 0 0 0 0 0 0 0 0 0 0 0 0
36 31 41 48 55 53 9 0 0 0 0 3 25 12 8 8 11 47 2 4 38 51 50 11 69 66 22 1 2 8 0 0 0 0 0 0 0 0 0 0 0 0 0 0 0 0 0
51 52 61 54 60 63 38 3 0 0 0 14 7 17 15 0 4 20 30 6 3 9 25 28 65 112 47 39 0 0 0 0 4 0 0 0 0 3 0 0 0 0 0 0 0 0 0
56 59 67 77 60 64 52 22 0 0 0 12 28 57 30 19 0 11 5 14 40 0 27 64 35 96 27 0 0 0 0 0 0 0 0 0 0 13 0 0 0 0 0 0 0 0 0
36 40 62 73 66 58 53 32 12 0 0 0 14 79 58 28 4 0 7 32 70 62 28 1 2 0 9 19 0 0 10 0 0 0 0 0 0 146 0 0 0 0 0 0 0 0 0
27 42 51 48 52 50 44 47 36 16 0 0 0 47 85 57 0 3 1 4 19 54 70 43 2 0 0 33 41 0 0 0 0 0 0 0 0 22 8 0 0 0 0 0 0 0 0
21 28 35 30 39 39 45 64 60 47 0 0 0 144 85 62 2 1 16 8 5 12 46 82 71 35 3 52 48 6 1 0 1 0 0 0 0 3 7 1 0 0 0 0 0 0 0
19 12 8 19 31 43 54 65 75 74 34 14 0 54 115 51 6 7 9 18 10 13 10 6 5 22 17 6 20 47 14 0 0 1 1 0 0 1 0 6 0 0 0 0 0 0 0
7 5 12 23 34 44 46 59 73 82 64 43 5 10 90 51 25 4 6 15 16 13 21 5 4 3 89 51 20 60 70 77 0 2 23 6 0 0 0 0 0 0 0 0 0 0 0
CIN
0 0 0 0 0 0 0 0 0 0 0 0 0 0 0 0 0 0 0 0 0 0 0 0 0 0 0 0 0 0 0 0 0 0 0 0 0 -19 -2 -4 -16 -29 -52 -89 -112 -107 -105
0 0 0 0 0 0 0 0 0 0 0 0 0 0 0 0 0 0 0 0 0 0 0 0 0 0 0 0 0 0 0 0 0 0 0 0 0 -5 -1 -5 -18 -16 -53 -94 -146 -109 -118
0 0 0 0 0 0 0 0 0 0 0 0 0 0 0 0 0 0 0 0 0 0 0 0 0 0 0 0 0 0 0 0 0 0 0 0 -2 -1 0 0 -19 -40 -48 -85 -96 -9 0
0 0 0 0 0 0 0 0 0 0 0 0 0 0 0 0 0 0 0 0 0 0 0 0 0 0 0 0 0 0 0 0 0 0 -1 -12 -36 -37 -20 -35 -41 -44 -46 -51 -74 -114 -105
0 0 0 0 0 0 0 0 0 0 0 0 0 0 0 0 0 0 0 0 0 0 0 0 0 0 0 0 0 0 0 0 0 0 0 0 0 0 -49 -33 -43 -43 -18 -7 -63 -96 -65
0 0 0 0 0 0 0 0 0 0 0 0 0 0 0 0 0 0 0 0 0 0 0 0 0 0 0 0 0 0 0 0 0 0 0 0 0 0 -16 -36 -11 -5 -3 -2 -3 -78 0
0 0 0 0 0 0 0 0 0 0 0 0 0 0 0 0 0 0 0 0 0 0 0 0 0 0 0 0 0 0 0 0 -14 -5 0 -18 0 0 0 -28 -12 -3 -9 -1 -7 -18 0
0 0 0 0 0 0 0 0 0 0 0 0 0 0 0 0 0 0 0 0 0 0 0 0 0 0 0 0 0 0 0 -25 -21 -9 0 -1 -2 -1 -2 -3 -8 0 0 0 -4 -6 0
0 0 0 0 0 0 0 0 0 0 0 0 0 0 0 0 0 -51 0 0 0 0 0 0 0 0 0 0 0 0 0 -79 -36 -28 0 -1 -5 -11 -8 -14 0 0 0 0 -3 -1 0
0 0 0 0 0 0 0 0 0 0 0 0 0 0 0 0 0 -44 -37 0 0 0 0 0 0 0 0 0 0 0 0 0 -74 -76 0 0 -2 0 -57 0 0 0 0 0 0 0 0
0 0 0 0 0 0 0 0 0 0 0 0 0 0 0 0 0 -37 0 -13 0 -7 -4 0 0 0 0 0 0 0 0 0 0 0 0 0 0 0 -75 0 0 0 0 0 0 0 0
0 0 0 0 0 0 0 0 0 0 0 0 0 0 0 0 0 -53 -47 -85 0 0 0 0 0 0 0 0 0 0 0 0 0 0 0 0 0 0 -103 0 0 0 0 0 0 0 0
-1 -1 0 0 0 0 0 0 0 0 0 0 0 0 0 0 0 0 -56 -47 0 0 0 0 0 0 0 0 0 0 0 0 0 0 0 0 0 0 0 0 0 0 0 -1 -5 -13 -51
0 -1 0 0 0 0 0 0 0 0 0 0 0 0 0 0 0 0 -35 -22 -1 0 0 0 0 0 0 0 0 0 0 0 0 0 0 0 0 0 0 0 -4 0 0 -2 -3 -2 -6
0 0 0 0 0 0 0 0 0 0 0 0 0 0 0 0 0 0 -4 -1 0 0 0 0 0 0 0 0 0 0 0 0 0 0 0 0 0 0 0 0 0 0 0 0 0 -26 -45
0 0 0 0 0 0 0 0 0 0 0 0 0 0 0 0 0 -8 0 -1 0 0 0 0 0 0 0 0 0 0 0 0 0 0 0 0 -1 0 0 0 0 0 0 -5 -14 -19 -9
0 0 0 0 0 0 0 0 0 0 0 0 0 0 -1 0 0 -15 0 0 -2 -1 0 0 0 0 0 0 0 0 0 0 0 0 0 0 -1 0 0 0 0 0 0 -7 -36 -26 -5
0 0 0 0 0 0 0 0 0 0 0 0 0 0 0 0 0 0 0 0 0 -3 -1 0 0 0 0 0 0 0 0 0 0 0 0 0 0 0 0 0 0 0 0 0 -37 -91 -23
-1 -1 0 -1 0 0 0 0 0 0 0 0 0 0 0 -5 0 0 0 0 0 -2 -9 0 0 0 0 0 0 0 0 0 0 0 0 0 0 -4 0 0 0 0 0 0 -88 -35 0
-4 -3 -2 -1 -2 0 0 0 0 0 0 0 0 -2 -1 0 0 0 0 0 0 0 -2 -7 -2 -1 0 0 0 0 0 0 0 0 0 0 0 0 0 -2 0 0 0 0 -46 -33 -35
-3 -1 -3 -3 -1 -3 0 0 0 0 0 0 0 0 -1 -8 0 0 0 0 -1 -1 0 -9 -9 -1 0 0 0 0 0 0 0 0 0 0 0 0 0 0 0 0 0 0 0 0 0
-3 -2 -1 -1 -1 -2 -1 0 0 0 0 0 0 0 -14 0 -8 0 -3 0 -1 -3 -1 -1 -2 0 -1 0 -6 -14 -22 0 0 0 0 0 0 0 0 0 0 0 0 0 0 0 0
-1 -1 0 -1 -1 -1 -1 0 0 0 0 0 0 0 -1 0 0 0 0 0 0 -16 -13 -3 -2 0 -8 -1 0 0 0 0 -3 0 0 0 0 -2 0 0 0 0 0 0 0 0 0
0 0 0 0 -1 -1 0 0 0 0 0 -2 0 0 0 0 0 -1 0 -5 -1 0 -23 -1 -28 -15 -3 -33 0 0 0 0 0 0 0 0 0 -11 0 0 0 0 0 0 0 0 0
0 -1 0 0 0 0 -1 -1 -1 0 0 0 0 0 0 0 0 0 -1 -6 0 -1 -4 -40 -3 -37 -50 -15 0 0 -28 0 0 0 0 0 0 -22 0 0 0 0 0 0 0 0 0
0 0 0 0 0 0 -1 0 0 -2 0 0 0 -1 0 0 0 0 0 0 0 0 0 -8 -99 0 0 -1 -14 0 0 0 0 0 0 0 0 -6 -10 0 0 0 0 0 0 0 0
0 0 0 0 0 -1 -1 0 0 0 -1 0 0 0 0 0 0 -1 -1 -4 0 0 0 -2 -20 -6 -17 -1 0 -1 -1 -2 -1 0 0 0 0 -10 -2 -1 0 0 0 0 0 0 0
0 0 -1 0 0 -1 -1 -1 0 0 -1 -1 0 0 0 0 0 0 -2 0 -1 0 0 0 -2 -8 -2 0 0 -1 0 -1 0 -3 0 0 0 -1 0 -2 0 0 0 0 0 0 0
-1 0 0 0 0 0 -1 -1 -1 0 0 0 0 0 -1 0 0 -7 -6 -1 -1 0 0 0 0 0 -1 -1 0 0 -5 -8 0 -12 0 -2 0 0 0 0 0 0 0 0 0 0 0
Wind_Speed
9 10 11 11 12 13 14 15 17 17 17 19 20 20 21 21 22 22 22 21 21 19 18 16 13 11 7 8 12 12 12 7 9 7 13 17 14 12 5 14 2 1 5 6 6 8 11
9 10 11 11 12 13 14 15 16 16 18 19 20 21 21 22 22 23 24 24 22 19 18 14 9 8 6 15 3 8 7 10 11 12 14 19 12 7 5 9 9 4 5 7 6 7 6
9 9 10 11 12 13 13 14 16 16 17 19 21 22 22 23 23 24 25 26 23 19 16 12 6 5 9 17 4 8 5 9 12 15 17 18 13 6 3 4 3 5 7 8 7 8 5
7 8 9 10 11 12 13 14 15 17 18 19 21 22 23 23 24 25 26 27 25 21 14 10 3 5 8 2 8 9 9 10 9 11 14 11 8 9 1 5 3 8 9 10 11 12 10
6 7 8 9 10 12 13 14 15 17 18 19 19 22 23 24 24 26 26 29 25 17 9 8 5 7 12 2 7 4 7 5 3 3 6 3 4 6 3 9 10 12 12 13 11 13 8
6 6 8 9 11 12 13 14 16 17 18 18 19 21 23 24 25 27 28 30 19 10 7 9 9 5 9 6 6 3 3 5 5 5 4 7 6 8 9 11 11 5 13 14 14 16 14
5 6 7 8 10 11 13 14 15 16 17 19 21 21 23 24 26 27 18 11 3 5 6 8 4 11 4 5 2 7 4 4 6 10 10 13 9 11 14 15 18 19 13 17 6 16 14
4 6 7 9 9 11 12 14 15 16 18 20 20 23 23 24 25 26 15 6 7 3 9 12 11 9 8 6 6 12 5 8 10 12 14 6 11 14 15 13 8 11 16 11 9 12 8
4 5 6 8 9 10 12 14 15 16 17 19 20 22 24 26 28 11 4 9 7 7 7 8 13 12 10 9 10 13 10 12 11 13 15 9 14 6 6 5 7 11 10 9 12 10 5
4 5 5 7 9 10 11 13 14 15 17 18 20 23 24 29 6 8 2 10 8 3 6 10 9 9 8 7 10 4 8 6 10 11 14 11 4 4 3 7 5 11 14 10 12 2 8
3 4 5 6 7 9 11 13 14 15 16 18 19 22 23 21 9 4 8 10 7 4 3 4 11 3 10 12 5 12 6 8 10 11 6 5 5 6 9 10 2 6 9 8 9 8 11
5 3 3 5 7 8 10 13 14 16 16 17 19 20 22 7 6 9 11 11 4 0 7 5 5 9 13 16 11 9 9 10 6 14 7 10 2 6 8 4 2 5 7 5 5 6 6
8 7 6 6 6 8 10 13 14 15 17 18 19 21 16 10 4 11 10 5 3 4 7 8 7 11 16 15 18 12 12 14 10 9 11 14 9 3 2 4 3 3 7 3 4 3 4
11 9 7 7 7 8 10 12 14 15 17 18 21 25 7 8 8 10 5 3 5 7 16 4 1 10 15 17 15 17 15 14 17 15 9 12 10 13 9 9 11 9 10 3 4 4 7
11 10 9 7 6 7 9 11 13 15 16 18 25 5 5 5 5 4 3 7 9 10 5 9 6 9 13 16 8 15 17 17 17 18 16 10 9 10 7 5 4 6 9 5 5 6 4
11 10 8 8 7 8 8 10 12 15 17 16 9 7 5 4 2 2 5 9 12 15 10 10 11 11 13 15 12 10 13 14 16 14 11 11 6 9 6 2 3 5 4 3 1 3 4
12 11 10 9 8 7 8 9 12 15 18 17 5 5 5 3 3 6 8 10 17 19 3 7 11 12 13 11 16 15 9 6 6 9 9 13 8 7 6 10 10 6 4 3 1 5 2
14 12 11 9 9 8 8 8 10 14 20 11 4 5 3 3 7 7 11 13 16 17 11 9 8 10 10 10 6 13 13 4 4 3 9 11 4 8 14 4 3 3 9 13 5 4 2
15 14 12 11 10 9 7 8 8 10 13 7 5 4 3 3 6 11 13 17 19 20 18 14 12 11 10 11 6 9 8 6 6 6 1 9 5 4 10 6 3 5 8 5 3 5 9
17 15 14 13 12 10 9 7 6 8 10 6 5 3 5 5 10 12 16 17 16 20 16 21 18 14 14 11 12 5 6 4 2 5 3 3 6 9 5 3 7 4 9 4 4 4 6
19 17 17 15 13 11 10 8 5 6 9 5 4 4 6 3 8 12 14 12 18 18 16 18 10 14 12 11 14 12 10 10 5 5 3 3 5 10 11 9 8 9 10 12 7 12 8
19 18 17 16 16 14 12 9 6 4 8 4 3 4 6 11 13 11 13 16 14 16 18 22 12 15 15 13 6 6 9 11 8 11 10 8 5 7 9 11 11 10 11 12 16 14 15
18 18 18 17 16 15 14 11 8 4 3 3 5 4 3 8 10 12 10 17 16 15 15 16 17 20 15 13 7 10 9 12 13 11 11 10 5 4 5 10 9 8 12 13 13 15 15
19 18 18 19 18 17 14 12 10 8 7 7 6 7 4 7 10 11 16 6 12 20 15 13 10 10 13 7 10 10 10 10 10 8 11 9 11 4 2 2 1 10 13 6 6 10 10
19 18 18 19 18 17 16 14 12 10 8 7 7 3 3 6 11 14 12 10 11 11 14 12 4 4 16 3 1 5 5 7 8 12 9 11 9 3 3 6 10 15 9 9 7 8 6
19 18 17 17 18 17 16 14 13 12 10 6 8 4 4 5 6 12 14 10 8 10 12 8 4 5 9 4 3 6 7 6 7 6 9 12 8 6 4 4 5 5 8 4 1 8 8
20 19 18 17 17 17 16 15 14 13 12 7 7 8 3 4 10 10 6 6 6 7 7 6 3 5 5 2 2 6 7 6 10 11 7 8 8 5 7 5 6 9 12 4 5 3 9
21 19 17 17 16 16 16 16 15 14 13 8 7 8 5 4 12 15 9 9 3 2 3 7 4 3 3 5 4 4 5 8 8 16 16 11 8 4 5 2 11 7 11 5 5 8 10
20 19 17 16 16 16 15 15 15 15 14 11 8 8 6 3 6 14 15 14 14 8 6 1 4 5 2 4 6 4 3 4 9 10 13 14 8 7 9 6 4 5 5 8 7 9 9
Wind_Direction
22 24 21 19 19 19 16 10 4 358 355 352 352 349 347 343 336 330 326 322 320 318 314 311 313 321 303 225 251 149 158 151 159 190 217 248 249 247 307 278 301 244 64 76 110 148 165
28 30 26 20 19 17 15 9 6 359 354 353 348 345 344 340 336 330 326 321 316 313 310 303 306 316 255 262 1 166 202 161 208 210 227 251 251 312 154 356 330 68 147 131 167 161 140
20 17 25 21 20 15 12 7 3 1 357 352 347 343 341 339 336 329 323 317 313 312 303 294 295 284 266 254 314 301 196 220 230 216 235 240 258 320 37 303 316 163 156 178 181 159 174
15 15 20 18 14 10 8 5 2 358 357 355 347 342 339 338 334 327 320 316 312 305 289 280 253 270 262 54 324 266 191 215 248 241 264 24 1 302 252 60 223 210 206 207 169 174 153
14 11 13 11 8 7 4 2 1 360 356 353 349 341 337 336 333 325 319 312 302 287 251 273 259 216 262 113 226 249 281 198 116 70 48 51 243 253 190 221 216 227 233 220 161 183 148
8 5 6 9 5 3 2 359 356 356 353 350 347 342 337 334 331 323 322 299 285 311 221 236 253 270 249 251 112 322 228 141 188 143 177 207 220 229 221 219 228 216 264 242 194 180 216
351 4 358 359 3 1 356 357 355 352 351 349 345 342 337 334 329 321 330 317 288 197 287 253 317 243 281 98 200 234 165 246 188 208 229 196 228 235 229 223 255 281 229 268 180 152 191
348 346 342 345 352 356 355 352 351 349 347 344 343 339 336 332 325 318 303 23 43 334 304 272 241 267 272 329 223 227 162 218 204 228 231 253 240 280 257 280 278 314 283 286 75 132 182
307 323 339 341 345 351 352 348 346 344 345 340 339 336 333 328 319 294 1 16 352 337 265 259 219 232 210 206 233 212 186 224 225 234 254 242 278 5 357 340 291 266 299 304 319 125 238
286 293 319 331 336 343 347 343 341 342 342 340 336 334 334 330 302 340 40 358 1 344 269 208 207 226 182 217 227 213 189 267 236 254 250 249 28 321 291 269 267 283 353 342 314 340 271
261 277 301 317 331 341 342 337 336 339 338 338 333 332 331 325 307 351 4 344 347 260 341 223 185 45 186 201 157 194 184 198 243 229 251 262 313 252 258 245 72 23 341 320 317 311 304
224 227 285 308 323 342 342 333 331 333 335 335 328 325 334 331 284 319 344 319 292 359 248 206 175 201 221 201 195 137 177 229 236 251 261 266 327 288 264 137 97 14 304 290 288 275 272
234 246 262 287 313 329 336 326 328 331 332 329 322 313 316 298 278 331 325 274 228 162 259 199 204 208 210 206 223 195 198 197 208 210 226 238 225 187 323 240 145 226 272 294 244 217 239
228 236 255 280 298 307 318 320 328 330 330 327 320 311 278 255 298 335 298 233 211 248 241 67 280 184 217 217 208 210 217 212 212 217 231 227 233 187 195 220 231 208 232 185 260 272 347
227 243 244 266 288 299 307 317 327 331 329 329 312 297 259 239 236 244 261 217 204 243 207 232 190 231 220 220 218 215 222 229 216 208 231 256 226 78 165 212 210 251 210 268 296 311 278
224 228 234 250 268 280 298 313 324 330 327 330 320 297 259 89 312 223 224 228 221 241 286 300 227 202 222 209 181 231 216 226 241 206 216 258 255 189 154 196 251 270 6 187 141 144 226
210 218 226 237 250 263 293 317 326 332 325 321 271 260 96 127 217 215 225 225 232 252 316 278 259 262 254 218 197 219 217 191 257 220 185 233 258 152 138 208 203 175 217 215 349 199 223
209 212 216 225 235 251 281 310 328 337 332 282 280 239 114 197 210 215 229 228 246 254 255 246 291 294 267 265 228 225 208 201 165 256 198 236 246 224 218 82 312 320 224 213 142 253 198
207 207 208 213 226 241 268 294 324 343 352 316 257 271 127 210 235 236 237 234 250 234 252 252 241 261 270 276 271 256 219 71 134 196 143 211 228 232 173 162 194 238 234 71 332 224 239
205 206 206 212 220 230 247 274 312 337 344 306 283 358 304 204 269 285 237 234 226 239 249 261 272 257 248 239 260 270 205 123 153 204 23 351 216 224 230 81 126 202 209 108 161 223 220
207 206 206 208 214 222 234 253 283 324 335 296 261 250 296 239 246 251 259 255 241 222 211 255 262 244 233 237 236 240 260 119 173 162 212 219 234 270 237 263 196 193 192 181 198 224 216
207 207 207 208 208 211 221 233 257 296 320 263 304 316 353 292 301 228 232 251 259 274 228 219 232 247 251 255 304 315 344 245 188 171 208 202 237 251 223 264 244 252 244 198 202 232 243
205 206 207 206 206 207 210 213 233 245 271 275 269 269 248 288 270 264 239 224 245 261 278 285 250 226 247 266 7 319 291 292 273 191 199 201 206 222 244 250 238 253 242 248 250 232 222
200 202 204 206 204 204 204 202 207 223 231 301 300 322 282 269 275 266 245 258 240 237 260 269 347 303 253 99 317 302 270 272 284 243 175 206 201 169 251 221 332 244 254 253 290 294 285
197 198 201 202 202 200 201 201 201 212 230 266 281 296 290 275 278 295 296 311 302 291 263 264 243 304 316 114 250 324 312 284 275 240 212 218 206 123 145 231 257 285 239 199 214 258 215
194 196 198 199 201 201 200 202 201 205 217 253 263 269 278 292 256 299 287 296 296 292 270 266 56 57 328 177 118 170 200 208 209 212 220 219 239 174 171 226 229 265 82 88 176 253 196
192 193 196 194 196 197 198 201 200 203 212 234 260 244 252 275 274 283 327 349 357 327 307 330 150 170 120 345 163 192 215 235 223 202 175 212 200 203 189 227 262 276 129 148 227 172 126
189 191 194 195 194 195 196 199 200 203 209 218 253 255 216 259 282 291 296 277 266 307 304 356 331 275 139 158 199 239 234 224 245 261 187 191 187 184 211 214 246 260 131 203 92 115 136
184 186 190 194 194 194 193 197 199 201 208 208 253 254 222 225 284 311 287 287 286 270 276 349 308 287 252 182 212 238 279 221 213 266 240 204 204 179 184 203 221 227 97 145 155 138 135